Regional Weather Roundup
Issued by NWS Goodland, KS

Home | Current Version | Previous Version | Text Only | Print | Product List | Glossary Off
Versions: 1 2 3 4 5 6 7 8 9 10 11 12 13 14 15 16 17 18 19 20 21 22 23 24 25 26 27 28 29 30 31 32 33 34 35 36 37 38 39 40 41 42 43 44 45 46 47 48 49 50

000
ASUS43 KGLD 242259
RWRGLD

GOODLAND FORECAST AREA HOURLY WEATHER ROUNDUP
NATIONAL WEATHER SERVICE GOODLAND KS
400 PM MST FRI NOV 24 2017

...OFFICIAL OBSERVATIONS...

CITY           SKY/WX    TMP DP  RH WIND       PRES   REMARKS
GOODLAND KS    CLOUDY    61  34  36 N12       29.85R
HILL CITY KS   PTCLDY    64  38  38 NE12      29.80R
IMPERIAL NEB   CLOUDY    60  36  40 N13       29.86R
MCCOOK NEB     CLOUDY    61  38  42 N9        29.83R
AKRON CO       MOCLDY    51  37  58 NW3       29.94R
BURLINGTON CO  CLOUDY    61  34  36 N14G26    29.89R
LIMON CO       CLOUDY    58  32  37 N23G31    29.93R
$$

...UNOFFICIAL OBSERVATIONS...

CITY           SKY/WX    TMP DP  RH WIND       PRES   REMARKS
LENORA KS        N/A     62  32  32 CALM        N/A
NORTON KS      CLEAR     63  30  29 N12       29.79
SHARON SPRINGS   N/A     65  34  32 NE13G21     N/A
KIT CARSON CO    N/A     64  33  31 MISG        N/A
YUMA CO        RAIN      55  16  21 N13G21    29.91R
$$



USA.gov is the U.S. government's official web portal to all federal, state and local government web resources and services.